Regional Weather Roundup
Issued by NWS

Home | Current Version | Previous Version | Graphics & Text | Print | Product List | Glossary On
Versions: 1 2 3 4 5 6 7 8 9 10 11 12 13 14 15 16 17 18 19 20 21 22 23 24 25 26 27 28 29 30 31 32 33 34 35 36 37 38 39 40 41 42 43 44 45 46 47 48 49 50
042
ASUS43 KDMX 092203
RWRIA

WEATHER ROUNDUP FOR IOWA
NATIONAL WEATHER SERVICE DES MOINES IA
400 PM CST TUE FEB 09 2016

NOTE: "FAIR" INDICATES FEW OR NO CLOUDS BELOW 12,000 FEET WITH NO
SIGNIFICANT WEATHER AND/OR OBSTRUCTIONS TO VISIBILITY.

* - THESE STATIONS ARE NOT NWS STATIONS...THUS NOT UNDER NWS
QUALITY CONTROL.  THEY ALSO DO NOT REPORT WEATHER SUCH
AS PRECIPITATION OR FOG.

IAZ001>003-012>014-020>022-031>034-043>046-092300-
   NORTHWEST IOWA

CITY           SKY/WX    TMP DP  RH WIND       PRES   REMARKS
CARROLL *      MOSUNNY   16   7  67 NW24      30.18R WCI  -3
CHEROKEE *     CLOUDY    20  11  67 NW13G18   30.21R WCI   7
DENISON *      CLOUDY    19  10  68 NW15G22   30.18S WCI   5
LE MARS *      SUNNY     23  12  63 NW16      30.24R WCI  10
ORANGE CITY *  CLOUDY    21  12  68 NW15G21   30.20R WCI   8
SHELDON *      CLOUDY    19  12  73 NW20      30.19R WCI   4
SIOUX CITY     SUNNY     25  12  58 NW14      30.24R WCI  13
SPENCER        CLOUDY    18   8  65 NW20G25   30.17R WCI   2
STORM LAKE *   CLOUDY    16   9  73 NW20G29   30.17R WCI  -1
$$

IAZ055>058-069>071-079>083-090>094-092300-
   SOUTHWEST IOWA

CITY           SKY/WX    TMP DP  RH WIND       PRES   REMARKS
ATLANTIC *     CLOUDY    18   7  62 NW21      30.21R WCI   1
AUDUBON *      MOSUNNY   18   7  62 NW13G21   30.19R WCI   4
CLARINDA *     SUNNY     25   9  50 NW18G26   30.24R WCI  11
COUNCIL BLFS * PTSUNNY   21   9  58 NW18      30.23R WCI   6
CRESTON *      SUNNY     19   5  53 NW23G31   30.15S WCI   2
HARLAN  *      CLOUDY    19  10  68 NW13G23   30.25R WCI   7
LAMONI         SUNNY     21   5  50 NW21G28   30.13R WCI   5
RED OAK *      CLOUDY    23   9  54 NW17G26   30.23R WCI   9
SHENANDOAH *   MOSUNNY   25   9  50 NW16G24   30.25R WCI  12
$$

IAZ047>049-059>061-072>074-084-092300-
   CENTRAL IOWA

CITY           SKY/WX    TMP DP  RH WIND       PRES   REMARKS
AMES           SUNNY     16   5  62 NW21G32   30.13R WCI  -1
ANKENY *       SUNNY     18   5  57 NW18      30.13R WCI   2
BOONE *        SUNNY     16   5  62 NW24      30.11R WCI  -3
CHARITON *     SUNNY     19   5  53 NW17G25   30.11S WCI   4
DES MOINES     MOSUNNY   18   5  57 NW20G29   30.13S WCI   2
GRINNELL*      SUNNY     14   9  79 NW24G32   30.08S WCI  -5
KNOXVILLE *    SUNNY     19   5  53 NW18G28   30.09R WCI   4
MARSHALLTOWN   SUNNY     15   5  64 NW20G30   30.09R WCI  -2
NEWTON *       FLURRIES  16   7  67 NW20G28   30.10R WCI  -1
PELLA *        SUNNY     19   8  63 NW18G35   30.12R WCI   3
$$

IAZ004>006-015-016-023>025-035-036-092300-
   NORTH CENTRAL IOWA

CITY           SKY/WX    TMP DP  RH WIND       PRES   REMARKS
ALGONA *       PTSUNNY   16   9  73 NW26G35   30.12R WCI  -3
CLARION *      CLOUDY    16   5  62 NW29      30.10S WCI  -4
ESTHERVILLE    SUNNY     16   8  71 NW24      30.14R WCI  -2
FORT DODGE *   SUNNY     18   7  62 NW15G21   30.14R WCI   3
MASON CITY     PTSUNNY   14   5  67 NW29      30.09R WCI  -7
FOREST CITY *    N/A     16   5  62 NW18G29   30.09R WCI  -1
WEBSTER CITY * MOSUNNY   16   7  67 NW25      30.10R WCI  -3
IOWA FALLS *     N/A     16   9  73 NW29G35   30.09R WCI  -4
$$

IAZ007>011-017>019-026>030-037>042-050>054-066-092300-
   NORTHEAST IOWA

CITY           SKY/WX    TMP DP  RH WIND       PRES   REMARKS
CEDAR RAPIDS   SUNNY     14   5  67 NW24      30.03R WCI  -5
CHARLES CITY * SUNNY     14   5  67 NW22G29   30.05R WCI  -4
CLINTON *      CLOUDY    16   7  67 NW20      29.98R WCI  -1
DECORAH *      SUNNY     14   1  57 N18G28    29.99R WCI  -3
DUBUQUE        SUNNY     13   3  64 NW20      29.96R WCI  -5
MONTICELLO *   SUNNY     14   3  62 NW24G32   30.00R WCI  -5
OELWEIN *      MOSUNNY   12   5  73 NW28      30.02R HAZE    WCI  -9
WATERLOO       SUNNY     14   3  61 NW22      30.06R WCI  -4
$$

IAZ064-065-067-068-078-092300-
   EAST CENTRAL IOWA

CITY           SKY/WX    TMP DP  RH WIND       PRES   REMARKS
DAVENPORT      MOSUNNY   15   5  64 NW20G31   29.99R WCI  -2
IOWA CITY      SUNNY     16   3  56 NW17G26   30.06R WCI   0
MT. PLEASANT * SUNNY     20   8  58 W16G23    30.06R WCI   6
MUSCATINE *    PTSUNNY   18   7  62 NW17G28   30.06R WCI   2
QUAD CITIES    CLOUDY    16   5  62 NW16G29   30.00R WCI   1
$$

IAZ062-063-075>077-085>089-095>099-092300-
   SOUTHEAST IOWA

CITY           SKY/WX    TMP DP  RH WIND       PRES   REMARKS
BURLINGTON     PTSUNNY   18   8  65 NW12G23   30.03R WCI   5
FAIRFIELD *    SUNNY     18   5  57 NW21G28   30.06R WCI   1
FORT MADISON * MOSUNNY   18   9  68 NW22      30.05R WCI   0
KEOKUK *       MOSUNNY   19   7  58 NW16G24   30.06R WCI   5
OSKALOOSA *      N/A     17   9  71 NW18      30.10R WCI   1
OTTUMWA        SUNNY     18   7  62 NW21      30.09R WCI   1
WASHINGTON *     N/A     16   5  62 NW21G29   30.06S WCI  -2
$$

ABBREVIATIONS USED IN REMARKS
   TC - TEMPERATURES IN CELSIUS
  WCI - WIND CHILL INDEX
   HX - HEAT INDEX
  VSB - VISIBILITY
$$





USA.gov is the U.S. government's official web portal to all federal, state and local government web resources and services.